Theta_e
337 335 335 333 334 333 330 328 327 321 317 316 316 317 319 316 319 318 317 317 317 317 316 315 315 314 314 314 319 320 320 321
338 336 335 335 333 330 328 326 322 317 316 318 319 320 322 324 321 321 321 321 319 318 316 315 315 319 320 319 319 321 320 320
336 336 334 332 329 327 326 322 318 317 320 323 326 328 327 328 326 321 321 319 319 318 317 316 317 320 322 320 320 320 318 320
335 333 333 332 329 325 323 317 323 324 324 329 331 331 329 330 326 324 326 326 323 323 323 322 323 323 323 321 321 320 319 318
331 330 328 326 325 328 324 325 329 330 331 331 330 330 331 330 330 329 329 328 327 324 323 324 324 323 322 320 319 318 318 317
328 327 325 325 325 326 323 327 330 330 332 331 331 330 328 326 328 328 328 326 324 324 324 323 322 321 320 319 318 317 317 317
327 326 326 323 326 326 330 331 330 330 329 329 329 328 327 327 325 326 324 325 323 322 321 320 319 318 317 317 316 315 315 315
326 327 329 329 331 330 329 327 327 327 326 326 327 327 329 329 327 326 323 321 320 319 317 316 315 315 315 314 314 313 313 311
328 329 331 331 330 328 326 325 321 320 321 325 325 326 325 325 325 322 318 317 315 313 313 313 312 311 310 309 309 309 307 305
329 330 331 329 327 325 323 319 319 320 319 318 318 317 319 319 316 313 312 313 313 313 311 310 308 307 307 306 306 305 305 304
332 331 329 327 326 325 320 322 319 319 319 316 311 311 313 314 314 314 313 312 312 310 309 307 306 305 304 303 304 303 305 304
333 330 326 325 323 321 322 322 319 318 314 312 315 315 314 314 314 313 312 311 310 309 307 305 304 303 303 303 302 303 302 302
332 329 325 323 321 323 322 321 320 316 315 315 314 314 314 313 313 312 311 309 307 306 305 304 303 302 301 301 301 300 301 300
329 329 326 326 327 327 324 321 318 315 315 315 315 314 313 312 312 310 308 307 304 304 303 303 302 301 301 301 300 300 300 300
330 330 328 328 327 323 322 319 317 315 315 315 314 313 312 310 308 307 305 304 304 303 303 302 302 301 301 300 299 299 299 300
330 330 329 326 321 320 319 317 316 316 316 315 314 313 311 309 307 305 305 304 304 303 303 302 301 302 301 300 299 299 298 298
329 325 324 321 319 318 317 318 317 316 315 313 311 310 309 307 306 305 304 304 303 303 303 303 301 300 300 299 299 298 298 298
324 322 320 319 319 318 318 317 315 312 310 309 308 307 305 304 304 304 303 302 302 302 302 301 301 300 300 299 299 298 298 297
320 319 319 318 318 318 317 313 310 309 309 308 306 305 304 304 303 303 302 301 301 301 301 301 300 300 299 299 298 298 297 296
320 319 318 318 317 314 311 309 308 308 306 306 305 304 304 303 302 300 300 299 299 299 299 300 300 300 299 298 297 297 296 295
Wind_Speed
19 18 19 17 15 14 13 11 10 11 11 11 10 11 11 11 12 10 9 8 8 8 8 9 11 12 14 14 11 12 15 15
21 19 17 16 15 13 12 12 11 11 12 11 12 12 12 11 10 7 5 5 5 5 6 7 9 8 9 13 10 12 13 14
22 22 18 13 12 12 11 11 12 12 13 12 12 8 8 7 6 3 4 6 5 5 6 8 8 8 7 9 14 12 13 15
24 21 19 15 14 14 10 13 13 11 10 6 2 5 7 4 1 3 4 6 5 4 6 9 8 12 11 10 12 13 16 18
18 17 16 14 14 16 12 11 11 8 5 3 7 3 1 3 6 6 3 6 7 5 10 4 8 9 11 11 12 13 14 16
18 17 13 17 15 15 13 14 11 10 8 5 3 1 2 5 3 6 6 10 9 7 8 10 9 8 10 8 12 13 15 17
19 19 16 17 12 15 14 13 10 10 7 6 3 3 4 4 4 7 11 5 7 7 10 10 11 13 15 14 15 18 17 18
21 19 18 15 17 13 19 17 16 15 9 7 5 7 7 4 4 3 5 6 7 7 9 11 13 15 18 17 17 18 17 18
21 20 17 18 22 20 18 14 12 13 10 8 7 7 7 6 3 2 5 6 8 9 12 13 15 17 18 20 20 19 20 21
21 20 21 24 24 20 15 15 10 5 5 10 8 12 10 5 8 8 8 10 8 9 12 14 16 18 19 19 18 19 22 23
20 25 23 24 22 18 16 8 5 3 6 8 8 12 9 7 9 6 7 6 8 9 12 13 16 17 19 20 21 23 22 23
23 23 22 21 18 15 11 9 6 4 9 10 11 8 4 4 3 3 5 8 8 11 10 12 15 18 20 19 20 19 23 26
26 23 20 18 15 11 8 10 9 11 10 10 8 5 3 1 3 5 7 7 9 9 10 13 15 19 20 22 16 22 22 21
20 17 16 13 14 12 11 11 12 11 12 9 6 4 1 2 2 3 6 8 10 9 12 15 16 16 21 19 6 15 17 23
16 16 18 19 14 13 15 15 13 14 11 10 9 5 1 3 4 6 7 7 10 12 12 11 12 18 15 16 7 5 17 15
20 23 20 14 15 14 14 13 12 10 12 13 6 1 2 4 6 7 7 8 11 12 12 16 15 14 16 16 18 21 5 7
22 19 16 15 10 15 14 7 11 10 7 4 2 7 6 8 8 9 8 11 14 16 17 10 13 17 16 16 17 19 17 10
17 17 15 14 9 8 6 7 9 10 5 3 4 3 8 6 5 5 7 12 14 16 17 15 14 17 20 17 13 9 12 11
15 16 16 13 11 9 8 8 7 4 1 2 5 7 10 11 10 12 15 17 19 21 21 17 20 18 18 18 16 15 14 12
17 18 17 14 12 11 10 8 4 3 1 4 6 9 10 11 12 12 15 18 19 20 21 20 17 16 16 18 17 14 14 12
Wind_Direction
137 138 133 125 128 130 131 125 125 122 109 111 112 106 94 95 90 82 81 74 64 52 44 35 33 28 24 20 21 27 15 8
138 132 126 127 133 131 129 131 127 119 112 113 114 107 94 90 86 74 76 62 39 25 19 14 7 2 13 15 4 -0 356 348
137 133 125 128 136 133 135 129 124 119 119 124 125 99 105 102 113 50 42 33 7 2 0 352 342 331 318 1 355 358 350 339
134 132 136 133 129 127 123 126 117 113 113 129 94 104 121 175 38 32 23 18 360 2 16 354 344 346 359 339 346 347 333 343
120 130 135 133 127 141 130 135 130 122 132 94 119 108 137 308 313 345 340 342 337 358 339 356 343 353 336 336 335 334 329 330
131 138 132 127 145 149 146 135 149 152 144 90 48 51 313 302 292 43 34 28 359 357 357 10 359 343 333 340 327 322 324 321
139 138 136 142 140 134 119 117 101 103 104 78 43 48 359 336 332 343 347 5 18 25 358 345 341 335 338 328 322 315 310 311
144 144 145 140 133 124 94 90 91 80 62 67 59 56 76 31 19 352 42 12 358 6 4 343 339 335 334 330 329 324 320 319
148 149 150 140 122 112 113 109 97 78 64 52 65 79 76 76 113 60 24 11 351 10 3 351 348 338 330 330 325 325 331 325
158 153 139 130 130 135 138 138 127 101 84 85 67 72 77 90 65 44 34 25 10 5 2 354 345 337 331 323 328 331 322 313
146 146 144 146 151 152 157 181 161 120 105 92 86 86 76 68 64 28 30 6 5 9 351 349 340 334 330 327 328 325 320 313
150 152 148 145 154 166 172 181 202 188 120 120 93 82 80 61 16 20 39 10 358 345 342 344 333 333 328 321 321 315 312 316
157 156 150 159 161 166 178 171 160 148 130 111 104 97 65 55 44 13 359 360 348 341 347 339 335 337 340 330 320 315 328 318
143 153 165 181 196 195 175 161 154 145 139 134 136 140 127 31 22 3 351 346 343 342 342 336 329 337 330 321 323 318 310 326
148 168 179 200 192 143 158 156 141 135 154 171 159 146 105 357 345 347 344 337 327 324 318 318 334 323 313 324 313 304 324 322
175 176 186 181 147 160 154 168 170 157 153 150 138 121 325 321 322 314 303 299 299 299 298 304 304 299 313 312 315 322 329 324
175 163 157 148 172 163 176 155 131 129 113 110 11 294 290 276 276 272 279 288 290 291 293 289 286 293 295 301 302 310 308 311
150 150 142 157 160 142 163 144 105 97 104 65 295 289 310 302 293 311 317 315 315 311 304 297 293 293 292 291 297 294 287 290
155 154 154 159 155 151 132 120 116 104 122 279 325 323 318 324 323 318 311 305 303 302 298 287 292 290 288 287 286 281 284 291
178 164 160 160 157 142 137 133 123 127 3 316 309 308 306 316 313 308 309 309 308 308 307 297 289 285 287 288 289 273 273 275